This is the latest recevied weather packets stored in our database for station/object KE8WMS. If no packets are shown the sender has not sent any weather packets the latest 10 day(s).
| Time | Temp. | Humidity | Pressure | Rain* | Wind** | Luminosity | Snow |
|---|---|---|---|---|---|---|---|
| 1778010683 | 13.89° C | 96% | 1003.5 hPa | 3.05 mm | - | 65 W/m² | - |
| 1778010380 | 13.89° C | 96% | 1003.7 hPa | 4.83 mm | - | 71 W/m² | - |
| 1778010076 | 13.89° C | 96% | 1003.8 hPa | 6.1 mm | - | 48 W/m² | - |
| 1778009773 | 13.89° C | 95% | 1003.8 hPa | 7.87 mm | - | 47 W/m² | - |
| 1778009470 | 14.44° C | 94% | 1004 hPa | 6.6 mm | - | 35 W/m² | - |
| 1778009169 | 14.44° C | 94% | 1003.9 hPa | 1.78 mm | - | 47 W/m² | - |
| 1778008866 | 14.44° C | 93% | 1003.8 hPa | 1.27 mm | - | 77 W/m² | - |
| 1778008564 | 14.44° C | 92% | 1003.8 hPa | 3.05 mm | - | 65 W/m² | - |
| 1778008261 | 14.44° C | 91% | 1003.6 hPa | 3.05 mm | - | 76 W/m² | - |
| 1778007956 | 14.44° C | 90% | 1003.6 hPa | 3.05 mm | - | 58 W/m² | - |
| 1778007652 | 15° C | 88% | 1003.8 hPa | 1.78 mm | - | 64 W/m² | - |
| 1778007349 | 15° C | 86% | 1003.7 hPa | 0 mm | - | 78 W/m² | - |
| 1778007045 | 15.56° C | 83% | 1003.6 hPa | 0 mm | - | 32 W/m² | - |
| 1778006742 | 16.11° C | 81% | 1003.8 hPa | 0 mm | - | 39 W/m² | - |
| 1778006439 | 16.67° C | 79% | 1003.6 hPa | 0 mm | - | 56 W/m² | - |
| 1778006136 | 16.67° C | 77% | 1003.5 hPa | 0 mm | - | 50 W/m² | - |
| 1778005833 | 17.22° C | 76% | 1003.5 hPa | 0 mm | - | 63 W/m² | - |
| 1778005529 | 17.22° C | 75% | 1003.6 hPa | 0 mm | - | 55 W/m² | - |
| 1778005226 | 17.22° C | 75% | 1003.8 hPa | 0 mm | - | 58 W/m² | - |
| 1778004923 | 17.78° C | 75% | 1003.7 hPa | 0 mm | - | 66 W/m² | - |
| 1778004621 | 17.78° C | 74% | 1003.6 hPa | 0 mm | - | 91 W/m² | - |
| 1778004316 | 17.78° C | 74% | 1003.9 hPa | 0 mm | - | 91 W/m² | - |
| 1778004015 | 18.33° C | 73% | 1003.7 hPa | 0 mm | - | 90 W/m² | - |
| 1778003708 | 18.33° C | 73% | 1003.8 hPa | 0 mm | - | 146 W/m² | - |
| 1778003406 | 17.78° C | 74% | 1003.7 hPa | 0 mm | - | 250 W/m² | - |
* Rain latest hour (hover to see other rain measurements)
** Current wind speed in m/s (hover to see current wind gust speed)